iso_date,epoch_date,Year,Hour,Min,DOY,POS_DOY,Lat,Lon,BP,Ts,Ta,has_bp,has_ts,has_ta,BuoyID,Buoy_Type,Buoy_Owner,Logistics,Hemisphere
2018-02-16T13:00:28Z,1518786029,2018,13,0,47.542,47.542,-75.9822,-36.476,993.3,0.1,-8.5,yes,yes,yes,300234065169560,Snow_Buoy,AWI-USIABP,unknown,South
2018-02-16T13:59:31Z,1518789571,2018,14,0,47.583,47.583,-75.9772,-36.4848,994.2,-0.1,-8.2,yes,yes,yes,300234065169560,Snow_Buoy,AWI-USIABP,unknown,South
2018-02-16T15:01:26Z,1518793286,2018,15,1,47.626,47.626,-75.973,-36.4856,994.8,-0.2,-8.0,yes,yes,yes,300234065169560,Snow_Buoy,AWI-USIABP,unknown,South
2018-02-16T16:00:28Z,1518796829,2018,16,0,47.667,47.667,-75.9692,-36.4812,995.4,-0.4,-7.7,yes,yes,yes,300234065169560,Snow_Buoy,AWI-USIABP,unknown,South
2018-02-16T17:00:57Z,1518800458,2018,17,1,47.709,47.709,-75.966,-36.4732,995.7,-0.4,-7.6,yes,yes,yes,300234065169560,Snow_Buoy,AWI-USIABP,unknown,South
2018-02-16T18:04:19Z,1518804259,2018,18,5,47.753,47.753,-75.9636,-36.4646,996.6,-0.5,-7.6,yes,yes,yes,300234065169560,Snow_Buoy,AWI-USIABP,unknown,South
2018-02-16T19:00:28Z,1518807629,2018,19,1,47.792,47.792,-75.962,-36.4594,997.0,-0.5,-7.7,yes,yes,yes,300234065169560,Snow_Buoy,AWI-USIABP,unknown,South
2018-02-16T19:59:31Z,1518811171,2018,20,0,47.833,47.833,-75.9612,-36.458,997.5,-0.6,-8.4,yes,yes,yes,300234065169560,Snow_Buoy,AWI-USIABP,unknown,South
2018-02-16T21:00:00Z,1518814800,2018,21,0,47.875,47.875,-75.9606,-36.4616,997.7,-0.6,-9.4,yes,yes,yes,300234065169560,Snow_Buoy,AWI-USIABP,unknown,South
2018-02-16T22:00:28Z,1518818429,2018,22,1,47.917,47.917,-75.9602,-36.4718,998.2,-0.6,-10.1,yes,yes,yes,300234065169560,Snow_Buoy,AWI-USIABP,unknown,South
2018-02-16T22:59:31Z,1518821971,2018,23,0,47.958,47.958,-75.96,-36.4848,998.4,-0.7,-10.9,yes,yes,yes,300234065169560,Snow_Buoy,AWI-USIABP,unknown,South
2018-02-17T00:00:00Z,1518825600,2018,0,0,48.0,48.0,-75.9598,-36.4982,998.5,-0.7,-10.5,yes,yes,yes,300234065169560,Snow_Buoy,AWI-USIABP,unknown,South
2018-02-17T01:00:28Z,1518829229,2018,1,0,48.042,48.042,-75.9596,-36.508,998.8,-0.7,-10.6,yes,yes,yes,300234065169560,Snow_Buoy,AWI-USIABP,unknown,South
2018-02-17T02:00:57Z,1518832858,2018,2,1,48.084,48.084,-75.9596,-36.5122,999.0,-0.7,-9.6,yes,yes,yes,300234065169560,Snow_Buoy,AWI-USIABP,unknown,South
2018-02-17T03:00:00Z,1518836400,2018,3,0,48.125,48.125,-75.9594,-36.5092,998.9,-0.7,-9.2,yes,yes,yes,300234065169560,Snow_Buoy,AWI-USIABP,unknown,South
2018-02-17T04:00:28Z,1518840029,2018,4,0,48.167,48.167,-75.9586,-36.5018,998.9,-0.7,-8.4,yes,yes,yes,300234065169560,Snow_Buoy,AWI-USIABP,unknown,South
2018-02-17T04:59:31Z,1518843571,2018,5,0,48.208,48.208,-75.9578,-36.492,999.0,-0.7,-8.4,yes,yes,yes,300234065169560,Snow_Buoy,AWI-USIABP,unknown,South
2018-02-17T06:00:00Z,1518847200,2018,6,0,48.25,48.25,-75.9572,-36.481,999.3,-0.7,-7.8,yes,yes,yes,300234065169560,Snow_Buoy,AWI-USIABP,unknown,South
2018-02-17T07:00:28Z,1518850829,2018,7,0,48.292,48.292,-75.957,-36.4722,999.2,-0.7,-7.7,yes,yes,yes,300234065169560,Snow_Buoy,AWI-USIABP,unknown,South
2018-02-17T07:59:31Z,1518854371,2018,8,0,48.333,48.333,-75.9562,-36.4682,999.2,-0.7,-7.6,yes,yes,yes,300234065169560,Snow_Buoy,AWI-USIABP,unknown,South
2018-02-17T09:00:00Z,1518858000,2018,9,0,48.375,48.375,-75.9546,-36.4708,999.1,-0.7,-7.0,yes,yes,yes,300234065169560,Snow_Buoy,AWI-USIABP,unknown,South
2018-02-17T10:00:28Z,1518861629,2018,10,1,48.417,48.417,-75.9524,-36.4808,999.1,-0.7,-6.8,yes,yes,yes,300234065169560,Snow_Buoy,AWI-USIABP,unknown,South
2018-02-17T10:59:31Z,1518865171,2018,11,0,48.458,48.458,-75.9496,-36.4966,999.1,-0.7,-6.5,yes,yes,yes,300234065169560,Snow_Buoy,AWI-USIABP,unknown,South
2018-02-17T12:01:26Z,1518868886,2018,12,1,48.501,48.501,-75.9468,-36.5134,999.0,-0.7,-6.6,yes,yes,yes,300234065169560,Snow_Buoy,AWI-USIABP,unknown,South
2018-02-17T13:00:28Z,1518872429,2018,13,0,48.542,48.542,-75.944,-36.529,999.1,-0.7,-5.9,yes,yes,yes,300234065169560,Snow_Buoy,AWI-USIABP,unknown,South
2018-02-17T13:59:31Z,1518875971,2018,14,0,48.583,48.583,-75.9406,-36.5424,999.0,-0.7,-5.6,yes,yes,yes,300234065169560,Snow_Buoy,AWI-USIABP,unknown,South
2018-02-17T15:01:26Z,1518879686,2018,15,1,48.626,48.626,-75.9374,-36.5502,998.9,-0.7,-5.5,yes,yes,yes,300234065169560,Snow_Buoy,AWI-USIABP,unknown,South
2018-02-17T16:00:28Z,1518883229,2018,16,0,48.667,48.667,-75.9346,-36.5538,998.7,-0.7,-5.2,yes,yes,yes,300234065169560,Snow_Buoy,AWI-USIABP,unknown,South
2018-02-17T16:59:31Z,1518886771,2018,17,0,48.708,48.708,-75.932,-36.5546,998.4,-0.7,-5.9,yes,yes,yes,300234065169560,Snow_Buoy,AWI-USIABP,unknown,South
2018-02-17T18:00:00Z,1518890400,2018,18,0,48.75,48.75,-75.9308,-36.5528,998.3,-0.7,-5.5,yes,yes,yes,300234065169560,Snow_Buoy,AWI-USIABP,unknown,South
2018-02-17T19:00:28Z,1518894029,2018,19,0,48.792,48.792,-75.93,-36.549,997.8,-0.7,-5.5,yes,yes,yes,300234065169560,Snow_Buoy,AWI-USIABP,unknown,South
2018-02-17T19:59:31Z,1518897571,2018,20,0,48.833,48.833,-75.929,-36.5462,997.5,-0.7,-5.6,yes,yes,yes,300234065169560,Snow_Buoy,AWI-USIABP,unknown,South
2018-02-17T21:00:00Z,1518901200,2018,21,0,48.875,48.875,-75.9276,-36.546,997.2,-0.7,-5.9,yes,yes,yes,300234065169560,Snow_Buoy,AWI-USIABP,unknown,South
2018-02-17T22:00:28Z,1518904829,2018,22,1,48.917,48.917,-75.9256,-36.5494,996.9,-0.7,-6.6,yes,yes,yes,300234065169560,Snow_Buoy,AWI-USIABP,unknown,South
2018-02-17T22:59:31Z,1518908371,2018,23,0,48.958,48.958,-75.9226,-36.557,996.7,-0.7,-6.6,yes,yes,yes,300234065169560,Snow_Buoy,AWI-USIABP,unknown,South
2018-02-18T00:00:00Z,1518912000,2018,0,0,49.0,49.0,-75.9194,-36.567,996.6,-0.7,-6.9,yes,yes,yes,300234065169560,Snow_Buoy,AWI-USIABP,unknown,South
2018-02-18T01:00:28Z,1518915629,2018,1,1,49.042,49.042,-75.9158,-36.576,996.3,-0.7,-7.5,yes,yes,yes,300234065169560,Snow_Buoy,AWI-USIABP,unknown,South
2018-02-18T01:59:31Z,1518919171,2018,2,0,49.083,49.083,-75.912,-36.5812,996.0,-0.8,-7.9,yes,yes,yes,300234065169560,Snow_Buoy,AWI-USIABP,unknown,South
2018-02-18T03:00:00Z,1518922800,2018,3,0,49.125,49.125,-75.908,-36.5822,995.7,-0.8,-8.9,yes,yes,yes,300234065169560,Snow_Buoy,AWI-USIABP,unknown,South
2018-02-18T04:00:28Z,1518926429,2018,4,1,49.167,49.167,-75.9036,-36.5784,995.6,-0.8,-9.9,yes,yes,yes,300234065169560,Snow_Buoy,AWI-USIABP,unknown,South
2018-02-18T04:59:31Z,1518929971,2018,5,0,49.208,49.208,-75.8996,-36.572,995.1,-0.8,-10.0,yes,yes,yes,300234065169560,Snow_Buoy,AWI-USIABP,unknown,South
2018-02-18T06:00:00Z,1518933600,2018,6,0,49.25,49.25,-75.896,-36.5634,994.7,-0.8,-9.8,yes,yes,yes,300234065169560,Snow_Buoy,AWI-USIABP,unknown,South
2018-02-18T07:00:28Z,1518937229,2018,7,0,49.292,49.292,-75.8924,-36.556,994.5,-0.8,-9.1,yes,yes,yes,300234065169560,Snow_Buoy,AWI-USIABP,unknown,South
2018-02-18T08:00:57Z,1518940858,2018,8,1,49.334,49.334,-75.889,-36.553,994.5,-0.8,-9.6,yes,yes,yes,300234065169560,Snow_Buoy,AWI-USIABP,unknown,South
2018-02-18T09:00:00Z,1518944400,2018,9,0,49.375,49.375,-75.8862,-36.5536,994.1,-0.8,-8.7,yes,yes,yes,300234065169560,Snow_Buoy,AWI-USIABP,unknown,South
2018-02-18T10:00:28Z,1518948029,2018,10,0,49.417,49.417,-75.884,-36.5564,993.7,-0.8,-8.2,yes,yes,yes,300234065169560,Snow_Buoy,AWI-USIABP,unknown,South
2018-02-18T10:59:31Z,1518951571,2018,11,0,49.458,49.458,-75.8812,-36.5578,993.5,-0.8,-8.0,yes,yes,yes,300234065169560,Snow_Buoy,AWI-USIABP,unknown,South
2018-02-18T12:01:26Z,1518955286,2018,12,1,49.501,49.501,-75.8776,-36.5602,993.3,-0.8,-7.0,yes,yes,yes,300234065169560,Snow_Buoy,AWI-USIABP,unknown,South
2018-02-18T13:00:28Z,1518958829,2018,13,0,49.542,49.542,-75.8736,-36.5602,992.8,-0.8,-6.7,yes,yes,yes,300234065169560,Snow_Buoy,AWI-USIABP,unknown,South
2018-02-18T13:59:31Z,1518962371,2018,14,0,49.583,49.583,-75.8688,-36.5568,992.3,-0.8,-6.0,yes,yes,yes,300234065169560,Snow_Buoy,AWI-USIABP,unknown,South
2018-02-18T15:01:26Z,1518966086,2018,15,1,49.626,49.626,-75.863,-36.5494,991.9,-0.8,-6.3,yes,yes,yes,300234065169560,Snow_Buoy,AWI-USIABP,unknown,South
2018-02-18T16:00:28Z,1518969629,2018,16,1,49.667,49.667,-75.8568,-36.5392,991.6,-0.7,-6.7,yes,yes,yes,300234065169560,Snow_Buoy,AWI-USIABP,unknown,South
2018-02-18T16:59:31Z,1518973171,2018,17,0,49.708,49.708,-75.851,-36.5278,991.2,-0.7,-6.7,yes,yes,yes,300234065169560,Snow_Buoy,AWI-USIABP,unknown,South
2018-02-18T18:01:26Z,1518976886,2018,18,1,49.751,49.751,-75.8464,-36.5172,990.7,-0.7,-6.5,yes,yes,yes,300234065169560,Snow_Buoy,AWI-USIABP,unknown,South
2018-02-18T19:00:28Z,1518980429,2018,19,0,49.792,49.792,-75.8432,-36.5094,990.3,-0.7,-6.5,yes,yes,yes,300234065169560,Snow_Buoy,AWI-USIABP,unknown,South
2018-02-18T19:59:31Z,1518983971,2018,20,0,49.833,49.833,-75.8418,-36.5054,989.6,-0.7,-6.2,yes,yes,yes,300234065169560,Snow_Buoy,AWI-USIABP,unknown,South
2018-02-18T21:00:00Z,1518987600,2018,21,0,49.875,49.875,-75.842,-36.5044,989.0,-0.7,-6.0,yes,yes,yes,300234065169560,Snow_Buoy,AWI-USIABP,unknown,South
2018-02-18T22:00:28Z,1518991229,2018,22,0,49.917,49.917,-75.8436,-36.505,988.3,-0.7,-5.8,yes,yes,yes,300234065169560,Snow_Buoy,AWI-USIABP,unknown,South
2018-02-18T22:59:31Z,1518994771,2018,23,0,49.958,49.958,-75.846,-36.504,987.7,-0.7,-4.7,yes,yes,yes,300234065169560,Snow_Buoy,AWI-USIABP,unknown,South
2018-02-19T00:01:26Z,1518998486,2018,0,1,50.001,50.001,-75.8466,-36.496,987.5,-0.7,-5.7,yes,yes,yes,300234065169560,Snow_Buoy,AWI-USIABP,unknown,South
2018-02-19T01:00:28Z,1519002029,2018,1,0,50.042,50.042,-75.8432,-36.4856,987.6,-0.7,-7.6,yes,yes,yes,300234065169560,Snow_Buoy,AWI-USIABP,unknown,South
2018-02-19T01:59:31Z,1519005571,2018,2,0,50.083,50.083,-75.8374,-36.4746,987.5,-0.7,-8.4,yes,yes,yes,300234065169560,Snow_Buoy,AWI-USIABP,unknown,South
2018-02-19T03:00:00Z,1519009200,2018,3,0,50.125,50.125,-75.8302,-36.4654,987.5,-0.7,-8.5,yes,yes,yes,300234065169560,Snow_Buoy,AWI-USIABP,unknown,South
2018-02-19T04:00:28Z,1519012829,2018,4,0,50.167,50.167,-75.8218,-36.4552,987.5,-0.8,-8.9,yes,yes,yes,300234065169560,Snow_Buoy,AWI-USIABP,unknown,South
2018-02-19T04:59:31Z,1519016371,2018,5,0,50.208,50.208,-75.8134,-36.4442,987.4,-0.8,-10.2,yes,yes,yes,300234065169560,Snow_Buoy,AWI-USIABP,unknown,South
2018-02-19T06:00:00Z,1519020000,2018,6,0,50.25,50.25,-75.8054,-36.4368,987.2,-0.8,-10.4,yes,yes,yes,300234065169560,Snow_Buoy,AWI-USIABP,unknown,South
2018-02-19T07:00:28Z,1519023629,2018,7,0,50.292,50.292,-75.7984,-36.4338,987.2,-0.8,-10.9,yes,yes,yes,300234065169560,Snow_Buoy,AWI-USIABP,unknown,South
2018-02-19T07:59:31Z,1519027171,2018,8,0,50.333,50.333,-75.793,-36.4354,987.1,-0.8,-11.1,yes,yes,yes,300234065169560,Snow_Buoy,AWI-USIABP,unknown,South
2018-02-19T09:00:00Z,1519030800,2018,9,0,50.375,50.375,-75.789,-36.4348,986.8,-0.8,-11.3,yes,yes,yes,300234065169560,Snow_Buoy,AWI-USIABP,unknown,South
2018-02-19T10:00:28Z,1519034429,2018,10,0,50.417,50.417,-75.7856,-36.4292,986.7,-0.8,-11.8,yes,yes,yes,300234065169560,Snow_Buoy,AWI-USIABP,unknown,South
2018-02-19T10:59:31Z,1519037971,2018,11,0,50.458,50.458,-75.7826,-36.4182,986.3,-0.8,-11.3,yes,yes,yes,300234065169560,Snow_Buoy,AWI-USIABP,unknown,South
2018-02-19T12:00:00Z,1519041600,2018,12,0,50.5,50.5,-75.778,-36.4002,986.2,-0.8,-11.0,yes,yes,yes,300234065169560,Snow_Buoy,AWI-USIABP,unknown,South
2018-02-19T13:00:28Z,1519045229,2018,13,0,50.542,50.542,-75.772,-36.3788,986.2,-0.8,-10.9,yes,yes,yes,300234065169560,Snow_Buoy,AWI-USIABP,unknown,South
2018-02-19T13:59:31Z,1519048771,2018,14,0,50.583,50.583,-75.7634,-36.3552,986.2,-0.8,-11.0,yes,yes,yes,300234065169560,Snow_Buoy,AWI-USIABP,unknown,South
2018-02-19T15:01:26Z,1519052486,2018,15,1,50.626,50.626,-75.7526,-36.3328,986.2,-0.8,-10.9,yes,yes,yes,300234065169560,Snow_Buoy,AWI-USIABP,unknown,South
2018-02-19T16:00:28Z,1519056029,2018,16,0,50.667,50.667,-75.741,-36.317,986.0,-0.8,-10.7,yes,yes,yes,300234065169560,Snow_Buoy,AWI-USIABP,unknown,South
2018-02-19T16:59:31Z,1519059571,2018,17,0,50.708,50.708,-75.7288,-36.3096,985.6,-0.8,-10.3,yes,yes,yes,300234065169560,Snow_Buoy,AWI-USIABP,unknown,South
2018-02-19T18:01:26Z,1519063286,2018,18,1,50.751,50.751,-75.7188,-36.3052,985.6,-0.8,-10.5,yes,yes,yes,300234065169560,Snow_Buoy,AWI-USIABP,unknown,South
2018-02-19T19:00:28Z,1519066829,2018,19,0,50.792,50.792,-75.7112,-36.3036,985.3,-0.8,-11.2,yes,yes,yes,300234065169560,Snow_Buoy,AWI-USIABP,unknown,South
2018-02-19T19:59:31Z,1519070371,2018,20,0,50.833,50.833,-75.7062,-36.3058,985.0,-0.8,-11.6,yes,yes,yes,300234065169560,Snow_Buoy,AWI-USIABP,unknown,South
2018-02-19T21:01:26Z,1519074086,2018,21,1,50.876,50.876,-75.7042,-36.3116,984.7,-0.8,-12.2,yes,yes,yes,300234065169560,Snow_Buoy,AWI-USIABP,unknown,South
2018-02-19T22:00:28Z,1519077629,2018,22,0,50.917,50.917,-75.705,-36.3106,984.0,-0.9,-10.4,yes,yes,yes,300234065169560,Snow_Buoy,AWI-USIABP,unknown,South
2018-02-19T22:59:31Z,1519081171,2018,23,0,50.958,50.958,-75.7062,-36.3,983.4,-0.9,-10.2,yes,yes,yes,300234065169560,Snow_Buoy,AWI-USIABP,unknown,South
2018-02-20T00:01:26Z,1519084886,2018,0,1,51.001,51.001,-75.7074,-36.2838,982.7,-0.9,-10.0,yes,yes,yes,300234065169560,Snow_Buoy,AWI-USIABP,unknown,South
2018-02-20T01:00:28Z,1519088429,2018,1,0,51.042,51.042,-75.7068,-36.2612,982.3,-0.9,-10.3,yes,yes,yes,300234065169560,Snow_Buoy,AWI-USIABP,unknown,South
2018-02-20T01:59:31Z,1519091971,2018,2,0,51.083,51.083,-75.7026,-36.2348,982.2,-0.9,-12.4,yes,yes,yes,300234065169560,Snow_Buoy,AWI-USIABP,unknown,South
2018-02-20T03:01:26Z,1519095686,2018,3,1,51.126,51.126,-75.6954,-36.2154,981.8,-0.9,-12.0,yes,yes,yes,300234065169560,Snow_Buoy,AWI-USIABP,unknown,South
2018-02-20T04:00:28Z,1519099229,2018,4,1,51.167,51.167,-75.6862,-36.199,981.5,-0.9,-12.7,yes,yes,yes,300234065169560,Snow_Buoy,AWI-USIABP,unknown,South
2018-02-20T04:59:31Z,1519102771,2018,5,0,51.208,51.208,-75.6758,-36.1894,981.1,-0.9,-13.2,yes,yes,yes,300234065169560,Snow_Buoy,AWI-USIABP,unknown,South
2018-02-20T06:01:26Z,1519106486,2018,6,1,51.251,51.251,-75.6654,-36.1862,980.8,-0.9,-13.5,yes,yes,yes,300234065169560,Snow_Buoy,AWI-USIABP,unknown,South
2018-02-20T07:00:28Z,1519110029,2018,7,0,51.292,51.292,-75.6568,-36.1884,980.6,-0.9,-13.9,yes,yes,yes,300234065169560,Snow_Buoy,AWI-USIABP,unknown,South
2018-02-20T08:00:57Z,1519113658,2018,8,1,51.334,51.334,-75.6502,-36.1966,980.3,-1.0,-14.2,yes,yes,yes,300234065169560,Snow_Buoy,AWI-USIABP,unknown,South
2018-02-20T09:00:00Z,1519117200,2018,9,0,51.375,51.375,-75.6464,-36.2046,980.0,-1.0,-14.2,yes,yes,yes,300234065169560,Snow_Buoy,AWI-USIABP,unknown,South
2018-02-20T10:00:28Z,1519120829,2018,10,1,51.417,51.417,-75.6446,-36.205,979.8,-1.0,-15.2,yes,yes,yes,300234065169560,Snow_Buoy,AWI-USIABP,unknown,South
2018-02-20T10:59:31Z,1519124371,2018,11,0,51.458,51.458,-75.6436,-36.1988,979.4,-1.0,-15.2,yes,yes,yes,300234065169560,Snow_Buoy,AWI-USIABP,unknown,South
2018-02-20T12:01:26Z,1519128086,2018,12,1,51.501,51.501,-75.643,-36.186,979.3,-1.0,-14.9,yes,yes,yes,300234065169560,Snow_Buoy,AWI-USIABP,unknown,South
2018-02-20T13:00:28Z,1519131629,2018,13,0,51.542,51.542,-75.6414,-36.1694,979.4,-1.0,-15.6,yes,yes,yes,300234065169560,Snow_Buoy,AWI-USIABP,unknown,South
2018-02-20T13:59:31Z,1519135171,2018,14,0,51.583,51.583,-75.6378,-36.152,979.4,-1.0,-15.3,yes,yes,yes,300234065169560,Snow_Buoy,AWI-USIABP,unknown,South
2018-02-20T15:01:26Z,1519138886,2018,15,1,51.626,51.626,-75.6324,-36.1326,979.0,-1.0,-14.6,yes,yes,yes,300234065169560,Snow_Buoy,AWI-USIABP,unknown,South
2018-02-20T16:00:28Z,1519142429,2018,16,0,51.667,51.667,-75.6254,-36.1182,979.1,-1.0,-14.9,yes,yes,yes,300234065169560,Snow_Buoy,AWI-USIABP,unknown,South
2018-02-20T17:00:57Z,1519146058,2018,17,1,51.709,51.709,-75.6168,-36.1124,979.1,-1.0,-14.0,yes,yes,yes,300234065169560,Snow_Buoy,AWI-USIABP,unknown,South
2018-02-20T18:00:00Z,1519149600,2018,18,0,51.75,51.75,-75.6096,-36.113,978.9,-1.0,-13.8,yes,yes,yes,300234065169560,Snow_Buoy,AWI-USIABP,unknown,South
2018-02-20T19:00:28Z,1519153229,2018,19,1,51.792,51.792,-75.6042,-36.1192,978.8,-1.0,-13.6,yes,yes,yes,300234065169560,Snow_Buoy,AWI-USIABP,unknown,South
2018-02-20T19:59:31Z,1519156771,2018,20,0,51.833,51.833,-75.6008,-36.1286,978.8,-1.0,-13.6,yes,yes,yes,300234065169560,Snow_Buoy,AWI-USIABP,unknown,South
2018-02-20T21:00:00Z,1519160400,2018,21,0,51.875,51.875,-75.5994,-36.1396,978.9,-1.0,-13.7,yes,yes,yes,300234065169560,Snow_Buoy,AWI-USIABP,unknown,South
2018-02-20T22:00:28Z,1519164029,2018,22,1,51.917,51.917,-75.5996,-36.1488,978.8,-1.0,-14.0,yes,yes,yes,300234065169560,Snow_Buoy,AWI-USIABP,unknown,South
2018-02-20T22:59:31Z,1519167571,2018,23,0,51.958,51.958,-75.601,-36.154,978.9,-1.0,-14.4,yes,yes,yes,300234065169560,Snow_Buoy,AWI-USIABP,unknown,South
2018-02-21T00:00:00Z,1519171200,2018,0,0,52.0,52.0,-75.6024,-36.1554,979.0,-1.0,-14.9,yes,yes,yes,300234065169560,Snow_Buoy,AWI-USIABP,unknown,South
2018-02-21T01:00:28Z,1519174829,2018,1,0,52.042,52.042,-75.6028,-36.153,979.1,-1.0,-14.7,yes,yes,yes,300234065169560,Snow_Buoy,AWI-USIABP,unknown,South
2018-02-21T02:00:57Z,1519178458,2018,2,1,52.084,52.084,-75.6014,-36.1478,979.2,-1.0,-14.7,yes,yes,yes,300234065169560,Snow_Buoy,AWI-USIABP,unknown,South
2018-02-21T03:00:00Z,1519182000,2018,3,0,52.125,52.125,-75.5986,-36.1404,979.2,-1.1,-14.8,yes,yes,yes,300234065169560,Snow_Buoy,AWI-USIABP,unknown,South
2018-02-21T04:00:28Z,1519185629,2018,4,0,52.167,52.167,-75.5938,-36.1342,979.2,-1.1,-14.6,yes,yes,yes,300234065169560,Snow_Buoy,AWI-USIABP,unknown,South
2018-02-21T05:00:57Z,1519189258,2018,5,1,52.209,52.209,-75.5882,-36.131,979.5,-1.1,-15.1,yes,yes,yes,300234065169560,Snow_Buoy,AWI-USIABP,unknown,South
2018-02-21T06:00:00Z,1519192800,2018,6,0,52.25,52.25,-75.5824,-36.1328,979.8,-1.1,-15.1,yes,yes,yes,300234065169560,Snow_Buoy,AWI-USIABP,unknown,South
2018-02-21T07:00:28Z,1519196429,2018,7,0,52.292,52.292,-75.5772,-36.1396,980.0,-1.1,-15.3,yes,yes,yes,300234065169560,Snow_Buoy,AWI-USIABP,unknown,South
2018-02-21T08:00:57Z,1519200058,2018,8,1,52.334,52.334,-75.5736,-36.1492,980.3,-1.1,-15.6,yes,yes,yes,300234065169560,Snow_Buoy,AWI-USIABP,unknown,South
2018-02-21T09:00:00Z,1519203600,2018,9,0,52.375,52.375,-75.572,-36.159,980.6,-1.1,-15.6,yes,yes,yes,300234065169560,Snow_Buoy,AWI-USIABP,unknown,South
2018-02-21T10:00:28Z,1519207229,2018,10,0,52.417,52.417,-75.5718,-36.1654,980.8,-1.1,-15.7,yes,yes,yes,300234065169560,Snow_Buoy,AWI-USIABP,unknown,South
2018-02-21T10:59:31Z,1519210771,2018,11,0,52.458,52.458,-75.5724,-36.1662,981.0,-1.1,-15.9,yes,yes,yes,300234065169560,Snow_Buoy,AWI-USIABP,unknown,South
2018-02-21T12:01:26Z,1519214486,2018,12,1,52.501,52.501,-75.5728,-36.1624,981.3,-1.1,-15.7,yes,yes,yes,300234065169560,Snow_Buoy,AWI-USIABP,unknown,South
2018-02-21T13:00:28Z,1519218029,2018,13,0,52.542,52.542,-75.5726,-36.1542,981.4,-1.1,-15.4,yes,yes,yes,300234065169560,Snow_Buoy,AWI-USIABP,unknown,South
2018-02-21T13:59:31Z,1519221571,2018,14,0,52.583,52.583,-75.5708,-36.1432,981.3,-1.1,-14.8,yes,yes,yes,300234065169560,Snow_Buoy,AWI-USIABP,unknown,South
2018-02-21T15:01:26Z,1519225286,2018,15,1,52.626,52.626,-75.5672,-36.1296,981.6,-1.1,-14.4,yes,yes,yes,300234065169560,Snow_Buoy,AWI-USIABP,unknown,South
2018-02-21T16:00:28Z,1519228829,2018,16,0,52.667,52.667,-75.562,-36.1154,982.1,-1.0,-14.4,yes,yes,yes,300234065169560,Snow_Buoy,AWI-USIABP,unknown,South
2018-02-21T16:59:31Z,1519232371,2018,17,0,52.708,52.708,-75.5562,-36.102,982.5,-1.0,-14.3,yes,yes,yes,300234065169560,Snow_Buoy,AWI-USIABP,unknown,South
2018-02-21T18:01:26Z,1519236086,2018,18,1,52.751,52.751,-75.5508,-36.093,982.7,-1.0,-14.4,yes,yes,yes,300234065169560,Snow_Buoy,AWI-USIABP,unknown,South
2018-02-21T19:00:28Z,1519239629,2018,19,0,52.792,52.792,-75.5468,-36.0864,983.0,-1.0,-14.4,yes,yes,yes,300234065169560,Snow_Buoy,AWI-USIABP,unknown,South
2018-02-21T19:59:31Z,1519243171,2018,20,0,52.833,52.833,-75.5442,-36.0814,983.3,-1.1,-14.4,yes,yes,yes,300234065169560,Snow_Buoy,AWI-USIABP,unknown,South
2018-02-21T21:01:26Z,1519246886,2018,21,1,52.876,52.876,-75.5424,-36.0788,983.4,-1.1,-14.1,yes,yes,yes,300234065169560,Snow_Buoy,AWI-USIABP,unknown,South
2018-02-21T22:00:28Z,1519250429,2018,22,0,52.917,52.917,-75.5418,-36.0774,983.6,-1.1,-13.5,yes,yes,yes,300234065169560,Snow_Buoy,AWI-USIABP,unknown,South
2018-02-21T22:59:31Z,1519253971,2018,23,0,52.958,52.958,-75.5416,-36.0762,983.8,-1.1,-13.7,yes,yes,yes,300234065169560,Snow_Buoy,AWI-USIABP,unknown,South
2018-02-22T00:01:26Z,1519257686,2018,0,1,53.001,53.001,-75.5412,-36.0748,984.1,-1.1,-13.7,yes,yes,yes,300234065169560,Snow_Buoy,AWI-USIABP,unknown,South
2018-02-22T01:00:28Z,1519261229,2018,1,0,53.042,53.042,-75.5404,-36.0712,984.4,-1.1,-13.7,yes,yes,yes,300234065169560,Snow_Buoy,AWI-USIABP,unknown,South
2018-02-22T01:59:31Z,1519264771,2018,2,0,53.083,53.083,-75.5388,-36.0638,984.8,-1.1,-13.7,yes,yes,yes,300234065169560,Snow_Buoy,AWI-USIABP,unknown,South
2018-02-22T03:00:00Z,1519268400,2018,3,0,53.125,53.125,-75.536,-36.053,985.0,-1.1,-13.6,yes,yes,yes,300234065169560,Snow_Buoy,AWI-USIABP,unknown,South
2018-02-22T04:00:28Z,1519272029,2018,4,1,53.167,53.167,-75.5322,-36.0382,985.5,-1.1,-14.6,yes,yes,yes,300234065169560,Snow_Buoy,AWI-USIABP,unknown,South
2018-02-22T04:59:31Z,1519275571,2018,5,0,53.208,53.208,-75.5274,-36.023,986.2,-1.1,-16.8,yes,yes,yes,300234065169560,Snow_Buoy,AWI-USIABP,unknown,South
2018-02-22T06:00:00Z,1519279200,2018,6,0,53.25,53.25,-75.522,-36.0102,986.3,-1.2,-17.4,yes,yes,yes,300234065169560,Snow_Buoy,AWI-USIABP,unknown,South
2018-02-22T07:00:28Z,1519282829,2018,7,0,53.292,53.292,-75.5168,-36.0006,986.7,-1.2,-18.3,yes,yes,yes,300234065169560,Snow_Buoy,AWI-USIABP,unknown,South
2018-02-22T07:59:31Z,1519286371,2018,8,0,53.333,53.333,-75.5124,-35.994,987.0,-1.2,-17.6,yes,yes,yes,300234065169560,Snow_Buoy,AWI-USIABP,unknown,South
2018-02-22T09:01:26Z,1519290086,2018,9,1,53.376,53.376,-75.5086,-35.9898,987.2,-1.2,-16.2,yes,yes,yes,300234065169560,Snow_Buoy,AWI-USIABP,unknown,South
2018-02-22T10:00:28Z,1519293629,2018,10,0,53.417,53.417,-75.5056,-35.9874,987.6,-1.2,-16.0,yes,yes,yes,300234065169560,Snow_Buoy,AWI-USIABP,unknown,South
2018-02-22T10:59:31Z,1519297171,2018,11,0,53.458,53.458,-75.5032,-35.9844,987.7,-1.2,-15.3,yes,yes,yes,300234065169560,Snow_Buoy,AWI-USIABP,unknown,South
2018-02-22T12:00:00Z,1519300800,2018,12,0,53.5,53.5,-75.5006,-35.9784,987.8,-1.2,-14.6,yes,yes,yes,300234065169560,Snow_Buoy,AWI-USIABP,unknown,South
2018-02-22T13:00:28Z,1519304429,2018,13,0,53.542,53.542,-75.498,-35.9684,987.7,-1.2,-14.4,yes,yes,yes,300234065169560,Snow_Buoy,AWI-USIABP,unknown,South
2018-02-22T13:59:31Z,1519307971,2018,14,0,53.583,53.583,-75.4946,-35.956,988.1,-1.2,-14.0,yes,yes,yes,300234065169560,Snow_Buoy,AWI-USIABP,unknown,South
2018-02-22T15:01:26Z,1519311686,2018,15,1,53.626,53.626,-75.4912,-35.941,988.4,-1.2,-13.4,yes,yes,yes,300234065169560,Snow_Buoy,AWI-USIABP,unknown,South
2018-02-22T16:00:28Z,1519315229,2018,16,0,53.667,53.667,-75.4868,-35.9246,988.4,-1.1,-13.4,yes,yes,yes,300234065169560,Snow_Buoy,AWI-USIABP,unknown,South
2018-02-22T16:59:31Z,1519318771,2018,17,0,53.708,53.708,-75.4824,-35.9058,988.7,-1.1,-13.4,yes,yes,yes,300234065169560,Snow_Buoy,AWI-USIABP,unknown,South
2018-02-22T18:01:26Z,1519322486,2018,18,1,53.751,53.751,-75.478,-35.887,989.2,-1.1,-13.2,yes,yes,yes,300234065169560,Snow_Buoy,AWI-USIABP,unknown,South
2018-02-22T19:00:28Z,1519326029,2018,19,0,53.792,53.792,-75.4736,-35.8684,989.4,-1.1,-13.1,yes,yes,yes,300234065169560,Snow_Buoy,AWI-USIABP,unknown,South
2018-02-22T19:59:31Z,1519329571,2018,20,0,53.833,53.833,-75.4694,-35.8526,989.7,-1.1,-13.5,yes,yes,yes,300234065169560,Snow_Buoy,AWI-USIABP,unknown,South
2018-02-22T21:00:00Z,1519333200,2018,21,0,53.875,53.875,-75.4654,-35.8402,989.7,-1.1,-13.8,yes,yes,yes,300234065169560,Snow_Buoy,AWI-USIABP,unknown,South
2018-02-22T22:00:28Z,1519336829,2018,22,0,53.917,53.917,-75.4624,-35.8318,989.9,-1.2,-14.6,yes,yes,yes,300234065169560,Snow_Buoy,AWI-USIABP,unknown,South
2018-02-22T22:59:31Z,1519340371,2018,23,0,53.958,53.958,-75.4606,-35.8282,990.0,-1.2,-15.5,yes,yes,yes,300234065169560,Snow_Buoy,AWI-USIABP,unknown,South
2018-02-23T00:01:26Z,1519344086,2018,0,1,54.001,54.001,-75.46,-35.8276,990.2,-1.2,-16.8,yes,yes,yes,300234065169560,Snow_Buoy,AWI-USIABP,unknown,South